[[[{"header":{"parameterUnit":"kt","parameterCategory":2,"dx":1,"dy":1,"la1":30.253999710083008,"la2":30.299108505249023,"lo1":-89.0895004272461,"lo2":-89.04439544677734,"nx":28,"ny":28,"refTime":"2022-09-20T09:00:00:Z","depth":0,"parameterNumber":1,"parameterNumberName":"U-component_of_WINDS"},"data":[-0.2952,-0.2735,-0.273,-0.2478,-0.243,-0.2257,-0.2192,-0.2107,-0.2038,-0.1828,-0.1705,-0.1673,-0.1598,-0.1447,-0.1312,-0.13,-0.1244,-0.1174,-0.1172,-0.1495,-0.1539,-0.1581,-0.1635,-0.1161,-0.1161,-0.0839,-0.0836,-0.0834,-0.3197,-0.3148,-0.3013,-0.2877,-0.2761,-0.2827,-0.2723,-0.262,-0.2462,-0.2373,-0.2251,-0.2063,-0.1913,-0.1859,-0.1713,-0.1608,-0.1629,-0.1569,-0.1577,-0.1564,-0.191,-0.1966,-0.1556,-0.1556,-0.1556,-0.1556,-0.1556,-0.1556,-0.364,-0.3509,-0.3425,-0.3278,-0.3207,-0.3115,-0.2988,-0.2954,-0.2819,-0.2667,-0.2682,-0.25,-0.2407,-0.2224,-0.2159,-0.2016,-0.208,-0.201,-0.1993,-0.1976,-0.196,-0.243,-0.199,-0.1991,-0.1992,-0.1993,-0.1993,0,-0.3963,-0.3968,-0.3837,-0.3704,-0.3596,-0.349,-0.3392,-0.3313,-0.3314,-0.3201,-0.3037,-0.2941,-0.2749,-0.2591,-0.245,-0.2396,-0.2447,-0.245,-0.2403,-0.2394,-0.2407,-0.24,-0.2965,-0.2462,-0.2466,-0.2469,-0.2471,-0.2473,-0.4412,-0.4258,-0.4165,-0.4074,-0.4019,-0.3869,-0.3779,-0.3792,-0.3694,-0.3572,-0.3453,-0.3297,-0.3172,-0.2905,-0.2861,-0.2715,-0.2739,-0.2548,-0.2716,-0.2716,-0.2737,-0.2747,-0.2732,-0.2515,-0.251,-0.2505,-0.2502,0,-0.4665,-0.4655,-0.4415,-0.4336,-0.4311,-0.4148,-0.408,-0.3946,-0.3926,-0.3739,-0.3696,-0.3662,-0.3497,-0.3484,-0.3291,-0.3289,-0.3019,-0.3044,-0.3053,-0.3058,-0.2887,-0.2904,-0.2332,-0.2259,-0.2748,-0.2744,-0.274,0,-0.5043,-0.484,-0.4837,-0.4697,-0.4473,-0.4492,-0.4267,-0.4227,-0.4148,-0.4001,-0.406,-0.392,-0.3924,-0.3781,-0.3777,-0.3554,-0.3516,-0.3501,-0.3503,-0.3496,-0.3498,-0.3442,-0.3465,-0.3509,-0.3512,-0.3515,-0.3517,0,-0.5442,-0.52,-0.4974,-0.4917,-0.481,-0.4702,-0.4652,-0.4563,-0.4471,-0.4351,-0.4292,-0.4147,-0.4068,-0.3955,-0.3951,-0.4066,-0.3677,-0.3833,-0.3661,-0.3661,-0.3574,-0.358,-0.3079,-0.3521,-0.3522,-0.3523,-0.3524,0,-0.5745,-0.5627,-0.53,-0.5214,-0.5149,-0.4997,-0.4861,-0.4728,-0.4629,-0.4618,-0.4522,-0.4558,-0.4361,-0.4518,-0.4246,-0.4398,-0.4316,-0.4283,-0.427,-0.4251,-0.4427,-0.4147,-0.3671,-0.3621,-0.4235,-0.4241,-0.4246,0,-0.6205,-0.5871,-0.5887,-0.5573,-0.5418,-0.5498,-0.5329,-0.524,-0.5211,-0.5073,-0.504,-0.488,-0.4994,-0.4942,-0.4809,-0.4767,-0.457,-0.4793,-0.459,-0.4582,-0.4617,-0.4178,-0.4111,-0.3777,-0.4322,-0.4314,-0.4308,0,-0.656,-0.6433,-0.6376,-0.6313,-0.6199,-0.6067,-0.5873,-0.5721,-0.5629,-0.5519,-0.5357,-0.5129,-0.5207,-0.5118,-0.5131,-0.4993,-0.4704,-0.5094,-0.5091,-0.5025,-0.4358,-0.4297,-0.424,-0.4743,-0.4733,-0.4726,-0.4368,0,-0.7024,-0.6855,-0.67,-0.6554,-0.6451,-0.6253,-0.6242,-0.6135,-0.6161,-0.6135,-0.5893,-0.5811,-0.565,-0.5581,-0.5602,-0.5291,-0.534,-0.5423,-0.5574,-0.5286,-0.5168,-0.5119,-0.5752,-0.5756,-0.576,-0.5763,0,0,-0.7466,-0.7224,-0.7245,-0.7059,-0.6973,-0.7058,-0.6847,-0.6772,-0.6616,-0.6554,-0.6639,-0.6306,-0.6233,-0.594,-0.5849,-0.5782,-0.5725,-0.5825,-0.5423,-0.5385,-0.535,-0.5224,-0.5173,-0.5769,-0.5771,-0.5772,-0.5773,0,-0.7634,-0.7567,-0.736,-0.7285,-0.7174,-0.7158,-0.7108,-0.7011,-0.6984,-0.6747,-0.6816,-0.6669,-0.6398,-0.6315,-0.6236,-0.5861,-0.5919,-0.5812,-0.5617,-0.546,-0.5417,-0.538,-0.5247,-0.5199,-0.5782,-0.5781,-0.5781,0,-0.7982,-0.7915,-0.7813,-0.7623,-0.755,-0.7385,-0.7543,-0.7361,-0.7238,-0.7333,-0.7096,-0.7047,-0.6931,-0.6655,-0.653,-0.6602,-0.6097,-0.6252,-0.6228,-0.6213,-0.606,-0.6009,-0.5963,-0.6565,-0.6568,-0.6571,0,0,-0.8128,-0.7971,-0.79,-0.7658,-0.7608,-0.7579,-0.7489,-0.7506,-0.7404,-0.7362,-0.73,-0.7196,-0.704,-0.6936,-0.6788,-0.6486,-0.6463,-0.6349,-0.6312,-0.6282,-0.6251,-0.609,-0.6039,-0.6581,-0.6581,-0.6582,0,0,-0.8196,-0.8107,-0.8152,-0.7871,-0.7774,-0.7684,-0.7535,-0.7586,-0.7453,-0.7474,-0.7487,-0.746,-0.7201,-0.7148,-0.7293,-0.6841,-0.6991,-0.6955,-0.6885,-0.6838,-0.6801,-0.6819,-0.7439,0,0,0,0,0,-0.8363,-0.812,-0.8162,-0.8113,-0.7868,-0.7662,-0.763,-0.7639,-0.7747,-0.7629,-0.7586,-0.7654,-0.723,-0.7359,-0.7307,-0.7145,-0.6718,-0.6694,-0.6671,-0.6509,-0.646,-0.6419,0,0,0,0,0,0,-0.8344,-0.8284,-0.8168,-0.8069,-0.8014,-0.7671,-0.7855,-0.7851,-0.776,-0.7777,-0.766,-0.765,-0.765,-0.7385,-0.7339,-0.7184,-0.7454,-0.6709,-0.6688,-0.667,-0.6492,-0.6452,-0.6418,0,0,0,0,0,-0.8329,-0.8281,-0.7888,-0.8072,-0.8024,-0.7979,-0.7865,-0.7862,-0.7792,-0.7723,-0.7716,-0.7807,-0.7646,-0.7607,-0.7358,-0.7205,-0.7487,-0.7469,-0.6695,-0.6679,-0.6665,-0.6472,0,0,0,0,0,0,-0.8318,-0.8276,-0.7878,-0.7864,-0.8165,-0.7998,-0.7973,-0.7872,-0.7744,-0.7734,-0.7872,-0.7887,-0.7639,-0.7611,-0.758,-0.7212,-0.7513,-0.7495,-0.7484,-0.6683,-0.667,-0.6659,0,0,0,0,0,0,-0.8302,-0.8263,-0.7871,-0.7988,-0.7987,-0.8016,-0.7993,-0.7781,-0.7741,-0.79,-0.7908,-0.788,-0.7683,-0.7612,-0.7589,-0.7257,-0.7533,-0.7516,-0.7504,-0.7497,-0.6673,-0.6663,0,0,0,0,0,0,-0.8286,-0.8252,-0.7992,-0.7991,-0.7991,-0.7831,-0.7828,-0.7575,-0.7847,-0.7904,-0.7871,-0.7882,-0.7681,-0.7659,-0.7594,-0.7271,-0.726,-0.7532,-0.7521,-0.7513,-0.7507,0,0,0,0,0,0,0,-0.8272,-0.8494,-0.7964,-0.7994,-0.7994,-0.7732,-0.7728,-0.7724,-0.7849,-0.7859,-0.7869,-0.7878,-0.7629,-0.7611,-0.7592,-0.7283,0,0,-0.7534,-0.7526,0,0,0,0,0,0,0,0,-0.8508,-0.8497,-0.7963,-0.796,-0.7957,-0.7731,-0.7728,-0.7725,-0.7851,-0.7859,-0.7867,-0.7874,-0.7624,-0.7609,-0.7594,0,0,0,0,0,0,0,0,0,0,0,0,0,0,0,-0.7963,-0.7961,0,-0.7731,-0.7728,-0.7725,-0.7852,-0.7859,-0.7865,-0.7871,-0.762,-0.7608,-0.7595,0,0,0,0,0,0,0,0,0,0,0,0,0,0,0,0,0,0,0,0,0,0,0,0,0,0,0,0,0,0,0,0,0,0,0,0,0,0,0,0,0,0,0,0,0,0,0,0,0,0,0,0,0,0,0,0,0,0,0,0,0,0,0,0,0,0,0,0,0]}],[{"header":{"parameterUnit":"kt","parameterCategory":2,"dx":1,"dy":1,"la1":30.253999710083008,"la2":30.299108505249023,"lo1":-89.0895004272461,"lo2":-89.04439544677734,"nx":28,"ny":28,"refTime":"2022-09-20T09:00:00:Z","depth":0,"parameterNumber":2,"parameterNumberName":"V-component_of_WINDS"},"data":[0.3723,0.3801,0.3765,0.3836,0.3817,0.3858,0.3862,0.3862,0.3854,0.3898,0.3916,0.389,0.3867,0.388,0.3897,0.3884,0.389,0.3939,0.3914,0.3729,0.3701,0.3674,0.365,0.3944,0.3944,0.4107,0.4109,0.411,0.3575,0.3557,0.3588,0.3592,0.3616,0.3546,0.3545,0.3568,0.3608,0.3601,0.362,0.3657,0.3682,0.3643,0.3659,0.3691,0.3657,0.3697,0.3689,0.3685,0.3488,0.3464,0.3722,0.3722,0.3722,0.3722,0.3722,0.3722,0.3294,0.3344,0.3327,0.336,0.3355,0.3359,0.34,0.3367,0.3397,0.3414,0.3371,0.3415,0.3401,0.3409,0.3404,0.3435,0.3385,0.3417,0.3423,0.343,0.3438,0.3188,0.3438,0.3437,0.3437,0.3436,0.3435,0,0.3075,0.3043,0.3073,0.309,0.3113,0.3125,0.3131,0.3156,0.308,0.3108,0.3145,0.3161,0.3192,0.322,0.3232,0.3221,0.3148,0.3142,0.3162,0.3177,0.3186,0.3171,0.284,0.3134,0.3131,0.313,0.3128,0.3127,0.278,0.2848,0.2818,0.2843,0.2838,0.2882,0.29,0.2829,0.2851,0.2848,0.2896,0.2928,0.2948,0.3015,0.2977,0.3,0.2964,0.3078,0.2967,0.2978,0.2953,0.2946,0.2947,0.3098,0.3102,0.3105,0.3107,0,0.2614,0.2562,0.2657,0.2623,0.2616,0.269,0.2659,0.2709,0.2675,0.2737,0.2747,0.2693,0.2732,0.2677,0.2714,0.2682,0.279,0.2761,0.2789,0.2777,0.2865,0.2854,0.3183,0.3217,0.2923,0.2926,0.2929,0,0.2337,0.2432,0.2346,0.2405,0.2504,0.2431,0.2531,0.2511,0.2503,0.2551,0.2465,0.2512,0.2436,0.2474,0.243,0.251,0.2521,0.2498,0.2483,0.2501,0.2502,0.2506,0.2488,0.2463,0.2461,0.2459,0.2458,0,0.2076,0.2147,0.2243,0.225,0.2227,0.2273,0.2266,0.2257,0.2278,0.2297,0.2308,0.2338,0.2352,0.2373,0.2314,0.224,0.2417,0.2303,0.2392,0.2393,0.2429,0.2426,0.2737,0.2456,0.2456,0.2455,0.2455,0,0.1842,0.1865,0.2018,0.1991,0.2013,0.2081,0.2101,0.2146,0.2145,0.212,0.2136,0.2071,0.2146,0.2034,0.2133,0.205,0.2068,0.2056,0.2062,0.2058,0.1933,0.2103,0.2414,0.2438,0.2061,0.2058,0.2055,0,0.1551,0.1694,0.1632,0.178,0.1837,0.1731,0.1804,0.1807,0.1782,0.1824,0.1796,0.1848,0.1756,0.1763,0.1821,0.1792,0.19,0.1778,0.1829,0.1832,0.1821,0.2109,0.2164,0.2353,0.2013,0.2017,0.202,0,0.1318,0.1293,0.1325,0.1327,0.1324,0.1375,0.1462,0.1497,0.1527,0.1548,0.1611,0.1691,0.1618,0.1637,0.159,0.1652,0.1825,0.1568,0.1567,0.1607,0.1992,0.2041,0.2074,0.1778,0.1783,0.1787,0.1987,0,0.0955,0.1026,0.1113,0.1132,0.1165,0.126,0.1204,0.1244,0.1192,0.1164,0.1265,0.1261,0.1301,0.1329,0.1284,0.1448,0.141,0.1337,0.1219,0.1413,0.1475,0.1503,0.1128,0.1124,0.1121,0.1119,0,0,0.0684,0.0784,0.0718,0.0801,0.0822,0.0715,0.0819,0.083,0.0855,0.0871,0.0806,0.0916,0.0918,0.1046,0.1102,0.1124,0.1144,0.1082,0.1324,0.1347,0.1368,0.1437,0.1466,0.1113,0.1112,0.1111,0.111,0,0.0538,0.0545,0.0653,0.0659,0.0668,0.0635,0.0661,0.0651,0.0639,0.0744,0.0651,0.0707,0.0806,0.0812,0.0829,0.1066,0.0992,0.1085,0.1225,0.1294,0.1322,0.1346,0.1419,0.1448,0.1102,0.1103,0.1103,0,0.0291,0.0284,0.0333,0.0386,0.0392,0.046,0.0322,0.0404,0.0451,0.0333,0.0438,0.0429,0.044,0.0574,0.0634,0.0576,0.0855,0.0764,0.0782,0.0786,0.085,0.0883,0.0912,0.0523,0.0522,0.052,0,0,0.0172,0.0241,0.0213,0.0351,0.0361,0.0315,0.0349,0.0301,0.0314,0.032,0.0307,0.0322,0.0374,0.0413,0.0462,0.0621,0.0612,0.0695,0.0722,0.0745,0.076,0.0831,0.0863,0.0513,0.0513,0.0513,0,0,0.0116,0.0089,0.0035,0.0189,0.0204,0.0186,0.0271,0.0205,0.0245,0.0228,0.0154,0.0155,0.0281,0.0279,0.0192,0.0417,0.0304,0.0324,0.0414,0.0448,0.0475,0.047,0.0051,0,0,0,0,0,-0.0061,0.0091,0.0043,0.0061,0.0132,0.0213,0.0221,0.0163,0.008,0.0147,0.0125,0.0048,0.0214,0.0136,0.0155,0.0251,0.0424,0.044,0.0455,0.0608,0.0644,0.0674,0,0,0,0,0,0,-0.0055,-0.0032,0.0039,0.0029,0.0044,0.0207,0.0053,0.0041,0.0071,0.0054,0.0055,0.0048,0.0001,0.0122,0.014,0.0232,0.0045,0.043,0.0444,0.0456,0.0621,0.065,0.0675,0,0,0,0,0,-0.005,-0.0032,0.0098,0.0027,0.004,-0.0002,0.0047,0.0035,0.0058,0.0027,0.0018,0.0011,0.0005,0.0016,0.0133,0.0226,0.0032,0.0039,0.0439,0.045,0.0459,0.0635,0,0,0,0,0,0,-0.0046,-0.0042,0.0099,0.0101,-0.0034,-0.0012,-0.0011,0.0031,0.0027,0.002,-0.0021,-0.0034,0.001,0.0018,0.0027,0.0226,0.0022,0.0029,0.0033,0.0447,0.0455,0.0463,0,0,0,0,0,0,-0.0052,-0.0039,0.01,0.0027,0.002,-0.0021,-0.002,0.0074,0.0029,-0.0021,-0.0032,-0.0026,-0.0003,0.002,0.0026,0.0175,0.0014,0.002,0.0025,0.0028,0.0454,0.046,0,0,0,0,0,0,-0.0048,-0.0037,0.0026,0.0021,0.0014,0.0029,0.006,0.0136,-0.0034,-0.0019,-0.0051,-0.0059,0.0002,0.0007,0.0027,0.0173,0.0174,0.0014,0.0019,0.0022,0.0024,0,0,0,0,0,0,0,-0.0044,-0.0101,0.0089,0.0015,0.0009,0.0118,0.0118,0.0119,-0.0036,-0.0043,-0.0049,-0.0056,-0.0024,-0.0017,-0.0009,0.0171,0,0,0.0013,0.0017,0,0,0,0,0,0,0,0,-0.0107,-0.0103,0.0089,0.0089,0.009,0.0118,0.0118,0.0118,-0.0037,-0.0042,-0.0048,-0.0053,-0.0022,-0.0016,-0.001,0,0,0,0,0,0,0,0,0,0,0,0,0,0,0,0.0089,0.0089,0,0.0118,0.0118,0.0118,-0.0038,-0.0042,-0.0047,-0.0051,-0.0021,-0.0016,-0.0011,0,0,0,0,0,0,0,0,0,0,0,0,0,0,0,0,0,0,0,0,0,0,0,0,0,0,0,0,0,0,0,0,0,0,0,0,0,0,0,0,0,0,0,0,0,0,0,0,0,0,0,0,0,0,0,0,0,0,0,0,0,0,0,0,0,0,0,0,0]}]]]